Weather History for SUSO - March, 2014

Change the Weather History Date:

Sunday, March 2, 2014

  Actual Average Record
Temperature  
Mean Temperature 70 °F -  
Max Temperature 82 °F 76 °F 91 °F (1999)
Min Temperature 57 °F 65 °F 55 °F (2005)
Cooling Degree Days 4    
Growing Degree Days 20 (Base 50)    
Moisture  
Dew Point 59 °F    
Average Humidity 62    
Maximum Humidity 100    
Minimum Humidity 35    
Precipitation  
Precipitation 0.00 in 0.20 in - ()
Sea Level Pressure  
Sea Level Pressure 29.94 in    
Wind  
Wind Speed 6 mph ()    
Max Wind Speed 14 mph    
Max Gust Speed -    
Visibility 6.1 miles    
Events      
Averages and records for this station are not official NWS values.
T = Trace of Precipitation, MM = Missing Value Source: Averaged Metar Reports

Daily Weather History Graph

Daily Weather History Graph

Search for Another Location

Airport or City:

Trip Planner

Search our weather history database for the weather conditions in past years. The results will help you decide how hot, cold, wet, or windy it might be!

Date:

Astronomy

Mar. 02, 2014 Rise Set
Actual Time 7:42 AM UYST 8:25 PM UYST
Civil Twilight 7:17 AM UYST 8:49 PM UYST
Nautical Twilight 6:48 AM UYST 9:18 PM UYST
Astronomical Twilight 6:19 AM UYST 9:48 PM UYST
Moon 9:00 AM UYST (3/2) 9:11 PM UYST (3/2)
Length of Visible Light 13h 31m
Length of Day
12h 42m
New Moon, 2% of the Moon is Illuminated
Mar 2
New Moon
Mar 8
First Quarter
Mar 16
Full
Mar 23
Last Quarter
Mar 30
New

Hourly Weather History & Observations

Time (UYST) Temp. Heat Index Dew Point Humidity Pressure Visibility Wind Dir Wind Speed Gust Speed Precip Events Conditions
7:00 AM 59 °F - 59 °F 99% 29.93 in 6 mi ESE 3.5 mph - -   Clear
7:00 AM 59.0 °F - 59.0 °F 100% 29.92 in - Calm Calm - N/A   Clear
8:00 AM 59.0 °F - 57.2 °F 94% 29.92 in - SE 5.8 mph - N/A   Clear
9:00 AM 60.8 °F - 59.0 °F 94% 29.95 in - SE 6.9 mph - N/A   Clear
10:00 AM 67 °F - 60 °F 73% 29.96 in 6 mi SE 6.9 mph - -   Scattered Clouds
10:00 AM 66.2 °F - 60.8 °F 83% 29.95 in - SE 6.9 mph - N/A   Clear
11:00 AM 73.4 °F - 60.8 °F 65% 29.95 in - ESE 4.6 mph - N/A   Clear
12:00 PM 77.0 °F - 60.8 °F 57% 29.98 in - East 9.2 mph - N/A   Scattered Clouds
1:00 PM 79 °F - 58 °F 37% 29.98 in 6 mi ESE 10.4 mph - -   Partly Cloudy
1:00 PM 78.8 °F - 57.2 °F 47% 29.98 in 6.2 mi ESE 10.4 mph - N/A   Scattered Clouds
2:00 PM 80.6 °F 81.1 °F 59.0 °F 48% 29.95 in 6.2 mi ESE 6.9 mph - N/A   Scattered Clouds
3:00 PM 80.6 °F 81.1 °F 59.0 °F 48% 29.95 in - North - - N/A   Mostly Cloudy
4:00 PM 81 °F - 58 °F 35% 29.94 in 6 mi ESE 6.9 mph - -   Partly Cloudy
4:00 PM 80.6 °F 80.8 °F 57.2 °F 45% 29.92 in 6.2 mi ESE 6.9 mph - N/A   Scattered Clouds
5:00 PM 80.6 °F 81.1 °F 59.0 °F 48% 29.92 in 6.2 mi ESE 11.5 mph - N/A   Mostly Cloudy
6:00 PM 80.6 °F 81.1 °F 59.0 °F 48% 29.92 in 6.2 mi ESE 13.8 mph - N/A   Mostly Cloudy
7:00 PM 79 °F - 60 °F 41% 29.92 in 6 mi SE 9.2 mph - -   Scattered Clouds
7:00 PM 78.8 °F - 59.0 °F 51% 29.92 in 6.2 mi SE 9.2 mph - N/A   Mostly Cloudy
8:00 PM 77.0 °F - 60.8 °F 57% 29.92 in 6.2 mi ESE 5.8 mph - N/A   Mostly Cloudy
9:00 PM 73.4 °F - 62.6 °F 69% 29.92 in 6.2 mi ESE 5.8 mph - N/A   Mostly Cloudy
10:00 PM 72 °F - 62 °F 62% 29.94 in 6 mi SE 5.8 mph - -   Scattered Clouds
10:00 PM 71.6 °F - 60.8 °F 69% 29.92 in 6.2 mi SE 5.8 mph - N/A   Partly Cloudy